Weather Roundup
Issued by NWS

Home | Current Version | Previous Version | Text Only | Print | Product List | Glossary On
Versions: 1 2 3 4 5 6 7 8 9 10 11 12 13 14 15 16 17 18 19 20 21 22 23 24 25 26 27 28 29 30 31 32 33 34 35 36 37 38 39 40 41 42 43 44 45 46 47 48 49 50
000
NZUS93 KARX 241810
HRRWXR

CURRENT HOURLY OBSERVATIONS ACROSS
MUCH OF THE UPPER MISSISSIPPI VALLEY
NATIONAL WEATHER SERVICE LA CROSSE WI
1200 PM CST MON NOV 24 2014


...SOUTHEAST MINNESOTA...


CITY           SKY/WX    TMP DP  RH WIND       PRES   REMARKS
ROCHESTER      CLOUDY    21  17  84 NW26G32   29.40R WCI   4
ROCHESTER/MAYO CLOUDY    22  18  85 W23G33    29.40R WCI   5
WINONA         LGT SNOW  30  27  86 NW14G24   29.38R WCI  20
AUSTIN         CLOUDY    18  14  86 NW26G33   29.45R WCI  -1
ALBERT LEA     CLOUDY    18  16  93 NW12G28   29.48R WCI   5
DODGE CENTER   CLOUDY    19  18  93 NW21G33   29.42R WCI   3
PRESTON        CLOUDY    21  17  86 NW25G33   29.40R WCI   4
OWATONNA       CLOUDY    19  16  86 W18G28    29.48R WCI   4
FARIBAULT      CLOUDY    21  16  79 W15G29    29.48R WCI   8
$$

...ELSEWHERE IN MINNESOTA...


CITY           SKY/WX    TMP DP  RH WIND       PRES   REMARKS
MINNEAPOLIS    CLOUDY    20  15  81 NW20      29.46R WCI   4
INTNL FALLS    LGT SNOW  16   9  74 N21G26    29.54R WCI  -1
DULUTH         LGT SNOW  24  20  84 NW24G39   29.31R VSB 3/4 WCI   8
RED WING       CLOUDY    25  19  80 NW13G22   29.41R WCI  13
REDWOOD FALLS  FLURRIES  17   8  67 NW28G40   29.61R WCI  -2
MANKATO        CLOUDY    18   9  68 NW30G37   29.52S WCI  -2
WORTHINGTON    CLOUDY    19  12  73 NW21G28   29.62R WCI   3
FAIRMONT       CLOUDY    18  10  73 NW24G31   29.56R WCI   0
$$

...SOUTHWEST WISCONSIN...


CITY           SKY/WX    TMP DP  RH WIND       PRES   REMARKS
LA CROSSE      LGT SNOW  29  24  82 W17       29.35R VSB 1   WCI  17
PRAIRIE DU CHI LGT SNOW  26  22  84 W20G25    29.39R WCI  13
BOSCOBEL       LGT SNOW  30  25  81 W15G22    29.35R VSB 1   WCI  19
LONE ROCK      SNOW      33  27  78 W18       29.29R VSB 1/2 WCI  22
PLATTEVILLE    CLOUDY    27  25  91 W21G33    29.36R WCI  13
FORT MC COY    LGT SNOW  29  28  95 W13G21    29.30R VSB 3/4 WCI  19
CAMP DOUGLAS   SNOW      30  30 100 W20G30    29.24R VSB 1/4 WCI  18
VIROQUA        CLOUDY    27  27 100 W14G24    29.30R WCI  16
WIS DELLS      SNOW      31  30  96 W9G18     29.22R VSB 1/2 WCI  23
$$

...ELSEWHERE IN WISCONSIN...


CITY           SKY/WX    TMP DP  RH WIND       PRES   REMARKS
MILWAUKEE      LGT RAIN  39  35  86 W15G24    29.16R WCI  31
MADISON        LGT SNOW  32  30  92 W14G23    29.23R VSB 3/4 WCI  22
GREEN BAY      CLOUDY    43  39  86 NW9       29.07R
EAU CLAIRE     SNOW      28  25  88 NW14      29.31R VSB 1/2 WCI  17
BLACK RVR FLS  SNOW      29  29 100 W14G20    29.29R VSB 1/2 WCI  19
MEDFORD        LGT SNOW  32  30  95 NW12G17   29.17R VSB 1   WCI  23
WAUSAU         LGT SNOW  33  32  96 NW12      29.13R FOG     WCI  24
WIS RAPIDS     SNOW      33  30  88 W21G28    29.19R WCI  21
MARSHFIELD     SNOW      32  29  88 NW21G29   29.19R VSB 1/2 WCI  20
RICE LAKE      LGT SNOW  28  24  86 W15G25    29.32S WCI  16
$$

...NORTHEAST IOWA...


CITY           SKY/WX    TMP DP  RH WIND       PRES   REMARKS
DECORAH        CLOUDY    23  19  86 W16G25    29.39R WCI  10
MASON CITY     FLURRIES  19  15  84 NW26G36   29.52R WCI   1
CHARLES CITY   CLOUDY    21  16  79 NW23G38   29.48R WCI   5
OELWEIN        CLOUDY    23  19  86 W29G35    29.45R WCI   6
$$

...ELSEWHERE IN IOWA...


CITY           SKY/WX    TMP DP  RH WIND       PRES   REMARKS
DES MOINES     FLURRIES  27  16  63 NW25G37   29.63R WCI  12
IOWA CITY      LGT SNOW  26  23  88 W26G38    29.53R FOG     WCI  10
FORT DODGE     CLOUDY    23  12  63 W18G28    29.60R WCI   9
$$

...NORTHERN ILLINOIS...


CITY           SKY/WX    TMP DP  RH WIND       PRES   REMARKS
CHICAGO-OHARE  SNOW      31  29  92 SW25G33   29.30R VSB 1/2 WCI  17
CHICAGO-MIDWAY LGT SNOW  33  31  92 W25G32    29.34R VSB 1   WCI  20
MOLINE         CLOUDY    29  23  78 W26G36    29.48R WCI  14
ROCKFORD       SNOW      30  27  88 W21G29    29.34R VSB 1/2 WCI  17
PEORIA         CLOUDY    33  27  78 W21G29    29.54R WCI  21
$$

NOTE: "FAIR" INDICATES FEW OR NO CLOUDS BELOW 12,000 FEET WITH NO
SIGNIFICANT WEATHER AND/OR OBSTRUCTIONS TO VISIBILITY. WIND
SPEEDS ARE IN MILES-PER-HOUR.



USA.gov is the U.S. government's official web portal to all federal, state and local government web resources and services.